Meteo18 Weather Cam more information Meteo18 Weather Cam


Thunder radar more information blitzortung!


Rain radar more information rain snow radar



Select another period ( hide this area )

Units Period Custom range Directly to
Metric English Both
Daily Weekly Monthly Yearly
use both date-selectors for a custom range
previous Day
With this date

WeatherUnderground graphs for this period ( click here )


Daily Summary for Wednesday 26 September 2018
Time Temp. ( °C ) Dew pt. ( °C ) Wind ( km/h ) from Gust ( km/h ) Pressure ( hPa ) Humid.( % ) Rainrate ( cm )
High16,9 7,1 17,7 NE ( 165/435 ) 20,9 1033,1 87 -
Average9,0 4,0 2,9 Calm #40/152 5,5 1032,2 72 -
Low4,6 2,3 -   0,0 1031,4 51 -
Daily Tabular details for Wednesday 26 September 2018
Time Temp. ( °C ) Dew pt. ( °C ) Wind ( km/h ) from Gust ( km/h ) Pressure ( hPa ) Humid.( % ) Rainrate ( cm )
00:04 11,4 4,4 13,0 NE 16,1 1032,4 62 -
00:08 11,4 4,4 17,7 NE 20,9 1032,4 62 -
00:14 11,3 4,3 14,3 NNE 14,5 1032,4 62 -
00:18 11,2 4,4 9,7 NE 16,1 1032,4 63 -
00:24 11,1 4,3 7,9 NE 20,9 1032,4 63 -
00:28 11,1 4,3 6,4 NE 17,7 1032,4 63 -
00:34 10,8 4,3 9,7 NE 9,7 1032,7 64 -
00:38 10,8 4,3 6,4 NE 14,5 1032,4 64 -
00:44 10,7 4,2 13,0 NE 16,1 1032,4 64 -
00:48 10,7 4,2 9,7 NE 16,1 1032,4 64 -
00:54 10,8 4,3 9,7 East 16,1 1032,4 64 -
00:58 10,7 4,2 9,7 NE 12,9 1032,4 64 -
01:04 10,7 4,2 13,0 NE 14,5 1032,4 64 -
01:08 10,7 4,2 3,2 NE 14,5 1032,4 64 -
01:14 10,6 4,3 9,7 NE 12,9 1032,4 65 -
01:18 10,5 4,2 9,7 NNE 11,3 1032,4 65 -
01:24 10,3 4,0 6,4 NNE 14,5 1032,4 65 -
01:28 10,2 4,1 3,2 NE 12,9 1032,4 66 -
01:34 10,1 4,0 4,7 ENE 11,3 1032,4 66 -
01:38 10,1 4,0 11,1 NNE 11,3 1032,1 66 -
01:44 9,9 4,1 3,2 NNE 9,7 1032,4 67 -
01:48 9,8 4,0 6,4 NNW 8,0 1032,1 67 -
01:54 9,8 4,0 1,4 NW 4,8 1032,1 67 -
01:58 9,7 4,1 1,4 NNW 6,4 1032,1 68 -
02:04 9,6 4,0 3,2 NNW 4,8 1032,1 68 -
02:08 9,6 4,0 3,2 ENE 8,0 1032,1 68 -
02:14 9,4 3,8 1,4 NNE 8,0 1032,1 68 -
02:18 9,2 3,8   Calm 4,8 1032,1 69 -
02:24 9,2 3,8   Calm 1,6 1032,1 69 -
02:28 9,1 3,9 4,7 NNE 4,8 1032,1 70 -
02:34 9,0 3,8 3,2 North 3,2 1032,1 70 -
02:38 8,9 3,7   Calm 3,2 1032,1 70 -
02:44 8,7 3,5 3,2 NNE 4,8 1032,1 70 -
02:48 8,6 3,6 3,2 NNE 4,8 1032,1 71 -
02:54 8,3 3,4 1,4 North 1,6 1032,1 71 -
02:58 8,2 3,5 3,2 NNE 3,2 1032,1 72 -
03:02 8,1 3,4   Calm 3,2 1032,1 72 -
03:09 7,9 3,4 1,4 NNE 3,2 1032,1 73 -
03:13 7,8 3,3   Calm 3,2 1032,1 73 -
03:19 7,8 3,5   Calm 1,6 1032,1 74 -
03:23 7,7 3,4   Calm 1,6 1032,1 74 -
03:29 7,6 3,5   Calm 3,2 1032,1 75 -
03:33 7,6 3,5   Calm 1,6 1032,1 75 -
03:39 7,5 3,5 1,4 NNW 1,6 1031,7 76 -
03:43 7,5 3,5 1,4 North 3,2 1032,1 76 -
03:49 7,6 3,5   Calm 4,8 1031,7 75 -
03:53 7,6 3,5 1,4 North 3,2 1031,7 75 -
03:59 7,6 3,5 1,4 NW 3,2 1031,7 75 -
04:03 7,6 3,5 1,4 NW 1,6 1031,7 75 -
04:09 7,6 3,5   Calm 3,2 1031,7 75 -
04:13 7,7 3,5 1,4 NNW 3,2 1031,4 75 -
04:19 7,7 3,5 1,4 North 1,6 1031,4 75 -
04:23 7,7 3,5 1,4 NNW 3,2 1031,4 75 -
04:29 7,7 3,5 1,4 North 3,2 1031,4 75 -
04:33 7,7 3,5 1,4 North 3,2 1031,4 75 -
04:39 7,6 3,5 1,4 NNW 3,2 1031,4 75 -
04:43 7,6 3,5 1,4 North 3,2 1031,7 75 -
04:49 7,4 3,4   Calm 3,2 1031,4 76 -
04:53 7,4 3,4 1,4 NNW 1,6 1031,4 76 -
04:59 7,3 3,3   Calm 3,2 1031,4 76 -
05:03 7,3 3,3   Calm 1,6 1031,4 76 -
05:09 7,1 3,2 1,4 North 3,2 1031,4 76 -
05:13 7,1 3,3 1,4 North 1,6 1031,4 77 -
05:19 7,1 3,3 1,4 NNE 3,2 1031,4 77 -
05:23 6,9 3,1 1,4 North 3,2 1031,4 77 -
05:29 6,9 3,1   Calm 1,6 1031,4 77 -
05:33 6,9 3,1   Calm 1,6 1031,4 77 -
05:39 6,8 3,1   Calm   1031,4 77 -
05:43 6,6 3,0   Calm   1031,4 78 -
05:49 6,4 3,0   Calm   1031,4 79 -
05:53 6,3 2,9   Calm 1,6 1031,4 79 -
05:57 6,2 3,0 1,4 North 1,6 1031,4 80 -
06:04 6,2 3,0   Calm   1031,4 80 -
06:08 6,2 3,0   Calm 1,6 1031,4 80 -
06:14 5,9 2,7   Calm   1031,4 80 -
06:18 5,8 2,8   Calm   1031,4 81 -
06:24 5,6 2,8 1,4 NNW 1,6 1031,4 82 -
06:28 5,4 2,7   Calm 1,6 1031,4 83 -
06:34 5,2 2,7 1,4 WNW 1,6 1031,4 84 -
06:38 5,0 2,5 1,4 WNW 1,6 1031,4 84 -
06:44 4,9 2,8 1,4 WNW 1,6 1031,4 86 -
06:48 4,8 2,7   Calm   1031,4 86 -
06:54 4,9 2,9   Calm 1,6 1031,4 87 -
06:58 5,1 3,0 1,4 NNW 1,6 1031,4 86 -
07:04 5,1 3,0 1,4 NNW 3,2 1031,4 86 -
07:08 5,1 2,8 1,4 North 1,6 1031,4 85 -
07:14 4,9 2,6 1,4 North 3,2 1031,4 85 -
07:18 4,9 2,8 3,2 North 3,2 1031,4 86 -
07:24 4,9 2,8 1,4 NNW 4,8 1031,4 86 -
07:28 4,9 2,8 3,2 North 3,2 1031,7 86 -
07:34 4,8 2,5 4,7 North 6,4 1031,7 85 -
07:38 4,8 2,5 4,7 North 8,0 1031,7 85 -
07:44 4,6 2,3 1,4 North 3,2 1031,7 85 -
07:48 4,6 2,5 1,4 North 3,2 1031,7 86 -
07:54 4,6 2,5 3,2 NE 3,2 1032,1 86 -
07:58 4,7 2,6 3,2 NNE 4,8 1032,1 86 -
08:04 4,9 2,8 1,4 NNE 3,2 1032,1 86 -
08:08 4,8 2,7 1,4 NNE 3,2 1032,1 86 -
08:14 5,1 3,0   Calm 1,6 1032,1 86 -
08:18 5,4 3,2   Calm 1,6 1032,1 86 -
08:24 5,7 3,4   Calm   1032,1 85 -
08:28 6,0 3,7   Calm   1032,1 85 -
08:33 6,4 3,7   Calm 1,6 1032,1 83 -
08:39 6,6 3,7   Calm 1,6 1032,1 82 -
08:43 6,8 3,8   Calm 3,2 1032,4 81 -
08:49 6,8 3,6 4,7 NNE 4,8 1032,4 80 -
08:53 6,7 3,7 3,2 NNE 4,8 1032,4 81 -
08:59 6,8 3,8 3,2 North 6,4 1032,4 81 -
09:03 6,9 3,9 6,4 North 8,0 1032,4 81 -
09:09 7,3 4,1 4,7 NE 6,4 1032,4 80 -
09:13 7,5 4,1 6,4 North 6,4 1032,7 79 -
09:19 7,7 4,3 1,4 NE 1,6 1032,7 79 -
09:23 7,8 4,2 1,4 NE 6,4 1032,7 78 -
09:29 8,1 4,5 1,4 NE 4,8 1032,7 78 -
09:33 8,3 4,5 3,2 North 4,8 1032,7 77 -
09:39 8,4 4,4 3,2 NE 6,4 1032,7 76 -
09:43 8,7 4,7 3,2 NNE 6,4 1032,7 76 -
09:49 9,2 5,0 3,2 NE 6,4 1033,1 75 -
09:53 9,4 5,0 1,4 NE 3,2 1032,7 74 -
09:59 10,1 5,3 3,2 NNE 3,2 1033,1 72 -
10:03 10,3 5,3   Calm 4,8 1033,1 71 -
10:09 10,8 5,3   Calm 4,8 1033,1 69 -
10:13 11,1 5,4   Calm 3,2 1033,1 68 -
10:19 11,4 5,3 1,4 ENE 3,2 1033,1 66 -
10:23 11,7 5,3 1,4 East 3,2 1033,1 65 -
10:29 12,2 4,9 3,2 ENE 6,4 1033,1 61 -
10:33 12,2 5,1 1,4 East 6,4 1033,1 62 -
10:39 12,2 5,1   Calm 4,8 1033,1 62 -
10:43 12,4 5,3 1,4 NNE 6,4 1033,1 62 -
10:49 12,7 5,4 3,2 East 4,8 1033,1 61 -
10:53 12,9 5,3 3,2 East 4,8 1033,1 60 -
10:59 13,0 5,4 1,4 NNE 3,2 1033,1 60 -
11:03 13,2 5,6 1,4 East 3,2 1033,1 60 -
11:09 13,4 5,3 1,4 East 6,4 1033,1 58 -
11:13 13,4 5,5   Calm 3,2 1033,1 59 -
11:19 13,5 5,6 4,7 East 6,4 1033,1 59 -
11:23 13,6 5,5 1,4 ENE 8,0 1033,1 58 -
11:29 13,9 5,8 3,2 ENE 9,7 1033,1 58 -
11:33 14,2 6,1 4,7 East 9,7 1033,1 58 -
11:39 14,5 6,1 4,7 ENE 9,7 1033,1 57 -
11:43 14,5 6,1 4,7 East 8,0 1033,1 57 -
11:49 14,7 6,3 6,4 East 8,0 1033,1 57 -
11:53 14,8 6,1 4,7 East 6,4 1033,1 56 -
11:59 15,2 6,5 4,7 East 9,7 1033,1 56 -
12:03 15,4 6,4   Calm 4,8 1033,1 55 -
12:09 15,9 6,9 6,4 NE 8,0 1033,1 55 -
12:13 16,1 6,8 3,2 East 6,4 1033,1 54 -
12:19 16,3 6,7 6,4 NE 11,3 1033,1 53 -
12:23 16,3 6,7 3,2 ENE 4,8 1033,1 53 -
12:29 16,7 7,1 6,4 ESE 11,3 1033,1 53 -
12:33 16,8 6,6 4,7 East 12,9 1033,1 51 -
12:39 16,9 7,0 1,4 ENE 4,8 1033,1 52 -
Daily Summary for Wednesday 26 September 2018
Time Temp. ( °C ) Dew pt. ( °C ) Wind ( km/h ) from Gust ( km/h ) Pressure ( hPa ) Humid.( % ) Rainrate ( cm )
High16,9 7,1 17,7 NE ( 165/435 ) 20,9 1033,1 87 -
Average9,0 4,0 2,9 Calm #40/152 5,5 1032,2 72 -
Low4,6 2,3 -   0,0 1031,4 51 -
Daily Tabular details for Wednesday 26 September 2018
Time Temp. ( °C ) Dew pt. ( °C ) Wind ( km/h ) from Gust ( km/h ) Pressure ( hPa ) Humid.( % ) Rainrate ( cm )
00:04 11,4 4,4 13,0 NE 16,1 1032,4 62 -
00:08 11,4 4,4 17,7 NE 20,9 1032,4 62 -
00:14 11,3 4,3 14,3 NNE 14,5 1032,4 62 -
00:18 11,2 4,4 9,7 NE 16,1 1032,4 63 -
00:24 11,1 4,3 7,9 NE 20,9 1032,4 63 -
00:28 11,1 4,3 6,4 NE 17,7 1032,4 63 -
00:34 10,8 4,3 9,7 NE 9,7 1032,7 64 -
00:38 10,8 4,3 6,4 NE 14,5 1032,4 64 -
00:44 10,7 4,2 13,0 NE 16,1 1032,4 64 -
00:48 10,7 4,2 9,7 NE 16,1 1032,4 64 -
00:54 10,8 4,3 9,7 East 16,1 1032,4 64 -
00:58 10,7 4,2 9,7 NE 12,9 1032,4 64 -
01:04 10,7 4,2 13,0 NE 14,5 1032,4 64 -
01:08 10,7 4,2 3,2 NE 14,5 1032,4 64 -
01:14 10,6 4,3 9,7 NE 12,9 1032,4 65 -
01:18 10,5 4,2 9,7 NNE 11,3 1032,4 65 -
01:24 10,3 4,0 6,4 NNE 14,5 1032,4 65 -
01:28 10,2 4,1 3,2 NE 12,9 1032,4 66 -
01:34 10,1 4,0 4,7 ENE 11,3 1032,4 66 -
01:38 10,1 4,0 11,1 NNE 11,3 1032,1 66 -
01:44 9,9 4,1 3,2 NNE 9,7 1032,4 67 -
01:48 9,8 4,0 6,4 NNW 8,0 1032,1 67 -
01:54 9,8 4,0 1,4 NW 4,8 1032,1 67 -
01:58 9,7 4,1 1,4 NNW 6,4 1032,1 68 -
02:04 9,6 4,0 3,2 NNW 4,8 1032,1 68 -
02:08 9,6 4,0 3,2 ENE 8,0 1032,1 68 -
02:14 9,4 3,8 1,4 NNE 8,0 1032,1 68 -
02:18 9,2 3,8   Calm 4,8 1032,1 69 -
02:24 9,2 3,8   Calm 1,6 1032,1 69 -
02:28 9,1 3,9 4,7 NNE 4,8 1032,1 70 -
02:34 9,0 3,8 3,2 North 3,2 1032,1 70 -
02:38 8,9 3,7   Calm 3,2 1032,1 70 -
02:44 8,7 3,5 3,2 NNE 4,8 1032,1 70 -
02:48 8,6 3,6 3,2 NNE 4,8 1032,1 71 -
02:54 8,3 3,4 1,4 North 1,6 1032,1 71 -
02:58 8,2 3,5 3,2 NNE 3,2 1032,1 72 -
03:02 8,1 3,4   Calm 3,2 1032,1 72 -
03:09 7,9 3,4 1,4 NNE 3,2 1032,1 73 -
03:13 7,8 3,3   Calm 3,2 1032,1 73 -
03:19 7,8 3,5   Calm 1,6 1032,1 74 -
03:23 7,7 3,4   Calm 1,6 1032,1 74 -
03:29 7,6 3,5   Calm 3,2 1032,1 75 -
03:33 7,6 3,5   Calm 1,6 1032,1 75 -
03:39 7,5 3,5 1,4 NNW 1,6 1031,7 76 -
03:43 7,5 3,5 1,4 North 3,2 1032,1 76 -
03:49 7,6 3,5   Calm 4,8 1031,7 75 -
03:53 7,6 3,5 1,4 North 3,2 1031,7 75 -
03:59 7,6 3,5 1,4 NW 3,2 1031,7 75 -
04:03 7,6 3,5 1,4 NW 1,6 1031,7 75 -
04:09 7,6 3,5   Calm 3,2 1031,7 75 -
04:13 7,7 3,5 1,4 NNW 3,2 1031,4 75 -
04:19 7,7 3,5 1,4 North 1,6 1031,4 75 -
04:23 7,7 3,5 1,4 NNW 3,2 1031,4 75 -
04:29 7,7 3,5 1,4 North 3,2 1031,4 75 -
04:33 7,7 3,5 1,4 North 3,2 1031,4 75 -
04:39 7,6 3,5 1,4 NNW 3,2 1031,4 75 -
04:43 7,6 3,5 1,4 North 3,2 1031,7 75 -
04:49 7,4 3,4   Calm 3,2 1031,4 76 -
04:53 7,4 3,4 1,4 NNW 1,6 1031,4 76 -
04:59 7,3 3,3   Calm 3,2 1031,4 76 -
05:03 7,3 3,3   Calm 1,6 1031,4 76 -
05:09 7,1 3,2 1,4 North 3,2 1031,4 76 -
05:13 7,1 3,3 1,4 North 1,6 1031,4 77 -
05:19 7,1 3,3 1,4 NNE 3,2 1031,4 77 -
05:23 6,9 3,1 1,4 North 3,2 1031,4 77 -
05:29 6,9 3,1   Calm 1,6 1031,4 77 -
05:33 6,9 3,1   Calm 1,6 1031,4 77 -
05:39 6,8 3,1   Calm   1031,4 77 -
05:43 6,6 3,0   Calm   1031,4 78 -
05:49 6,4 3,0   Calm   1031,4 79 -
05:53 6,3 2,9   Calm 1,6 1031,4 79 -
05:57 6,2 3,0 1,4 North 1,6 1031,4 80 -
06:04 6,2 3,0   Calm   1031,4 80 -
06:08 6,2 3,0   Calm 1,6 1031,4 80 -
06:14 5,9 2,7   Calm   1031,4 80 -
06:18 5,8 2,8   Calm   1031,4 81 -
06:24 5,6 2,8 1,4 NNW 1,6 1031,4 82 -
06:28 5,4 2,7   Calm 1,6 1031,4 83 -
06:34 5,2 2,7 1,4 WNW 1,6 1031,4 84 -
06:38 5,0 2,5 1,4 WNW 1,6 1031,4 84 -
06:44 4,9 2,8 1,4 WNW 1,6 1031,4 86 -
06:48 4,8 2,7   Calm   1031,4 86 -
06:54 4,9 2,9   Calm 1,6 1031,4 87 -
06:58 5,1 3,0 1,4 NNW 1,6 1031,4 86 -
07:04 5,1 3,0 1,4 NNW 3,2 1031,4 86 -
07:08 5,1 2,8 1,4 North 1,6 1031,4 85 -
07:14 4,9 2,6 1,4 North 3,2 1031,4 85 -
07:18 4,9 2,8 3,2 North 3,2 1031,4 86 -
07:24 4,9 2,8 1,4 NNW 4,8 1031,4 86 -
07:28 4,9 2,8 3,2 North 3,2 1031,7 86 -
07:34 4,8 2,5 4,7 North 6,4 1031,7 85 -
07:38 4,8 2,5 4,7 North 8,0 1031,7 85 -
07:44 4,6 2,3 1,4 North 3,2 1031,7 85 -
07:48 4,6 2,5 1,4 North 3,2 1031,7 86 -
07:54 4,6 2,5 3,2 NE 3,2 1032,1 86 -
07:58 4,7 2,6 3,2 NNE 4,8 1032,1 86 -
08:04 4,9 2,8 1,4 NNE 3,2 1032,1 86 -
08:08 4,8 2,7 1,4 NNE 3,2 1032,1 86 -
08:14 5,1 3,0   Calm 1,6 1032,1 86 -
08:18 5,4 3,2   Calm 1,6 1032,1 86 -
08:24 5,7 3,4   Calm   1032,1 85 -
08:28 6,0 3,7   Calm   1032,1 85 -
08:33 6,4 3,7   Calm 1,6 1032,1 83 -
08:39 6,6 3,7   Calm 1,6 1032,1 82 -
08:43 6,8 3,8   Calm 3,2 1032,4 81 -
08:49 6,8 3,6 4,7 NNE 4,8 1032,4 80 -
08:53 6,7 3,7 3,2 NNE 4,8 1032,4 81 -
08:59 6,8 3,8 3,2 North 6,4 1032,4 81 -
09:03 6,9 3,9 6,4 North 8,0 1032,4 81 -
09:09 7,3 4,1 4,7 NE 6,4 1032,4 80 -
09:13 7,5 4,1 6,4 North 6,4 1032,7 79 -
09:19 7,7 4,3 1,4 NE 1,6 1032,7 79 -
09:23 7,8 4,2 1,4 NE 6,4 1032,7 78 -
09:29 8,1 4,5 1,4 NE 4,8 1032,7 78 -
09:33 8,3 4,5 3,2 North 4,8 1032,7 77 -
09:39 8,4 4,4 3,2 NE 6,4 1032,7 76 -
09:43 8,7 4,7 3,2 NNE 6,4 1032,7 76 -
09:49 9,2 5,0 3,2 NE 6,4 1033,1 75 -
09:53 9,4 5,0 1,4 NE 3,2 1032,7 74 -
09:59 10,1 5,3 3,2 NNE 3,2 1033,1 72 -
10:03 10,3 5,3   Calm 4,8 1033,1 71 -
10:09 10,8 5,3   Calm 4,8 1033,1 69 -
10:13 11,1 5,4   Calm 3,2 1033,1 68 -
10:19 11,4 5,3 1,4 ENE 3,2 1033,1 66 -
10:23 11,7 5,3 1,4 East 3,2 1033,1 65 -
10:29 12,2 4,9 3,2 ENE 6,4 1033,1 61 -
10:33 12,2 5,1 1,4 East 6,4 1033,1 62 -
10:39 12,2 5,1   Calm 4,8 1033,1 62 -
10:43 12,4 5,3 1,4 NNE 6,4 1033,1 62 -
10:49 12,7 5,4 3,2 East 4,8 1033,1 61 -
10:53 12,9 5,3 3,2 East 4,8 1033,1 60 -
10:59 13,0 5,4 1,4 NNE 3,2 1033,1 60 -
11:03 13,2 5,6 1,4 East 3,2 1033,1 60 -
11:09 13,4 5,3 1,4 East 6,4 1033,1 58 -
11:13 13,4 5,5   Calm 3,2 1033,1 59 -
11:19 13,5 5,6 4,7 East 6,4 1033,1 59 -
11:23 13,6 5,5 1,4 ENE 8,0 1033,1 58 -
11:29 13,9 5,8 3,2 ENE 9,7 1033,1 58 -
11:33 14,2 6,1 4,7 East 9,7 1033,1 58 -
11:39 14,5 6,1 4,7 ENE 9,7 1033,1 57 -
11:43 14,5 6,1 4,7 East 8,0 1033,1 57 -
11:49 14,7 6,3 6,4 East 8,0 1033,1 57 -
11:53 14,8 6,1 4,7 East 6,4 1033,1 56 -
11:59 15,2 6,5 4,7 East 9,7 1033,1 56 -
12:03 15,4 6,4   Calm 4,8 1033,1 55 -
12:09 15,9 6,9 6,4 NE 8,0 1033,1 55 -
12:13 16,1 6,8 3,2 East 6,4 1033,1 54 -
12:19 16,3 6,7 6,4 NE 11,3 1033,1 53 -
12:23 16,3 6,7 3,2 ENE 4,8 1033,1 53 -
12:29 16,7 7,1 6,4 ESE 11,3 1033,1 53 -
12:33 16,8 6,6 4,7 East 12,9 1033,1 51 -
12:39 16,9 7,0 1,4 ENE 4,8 1033,1 52 -

Download your copy of this data-set  here

Our weather-data as stored at Weather Underground. Script developed by Jim McMurry. Adapted for the template by Leuven-Template.eu

You find our weather info also at:

Weather Underground

Equipment we use:

Weather-station
Davis Vue

Weather-program
Meteobridge

Weather-server
Raspberry PI 2 B+

Provider
1 and 1

Davis Vue

Meteobridge

Raspberry PI 2 B+

1 and 1